Chariton, IA

12:48 PM CDT on October 18, 2017 (GMT -0500)
Chariton Municipal

Weather History for KCNC - August, 2014

Change the Weather History Date:

Thursday, August 28, 2014

  Actual Average Record
Temperature  
Mean Temperature 74 °F -  
Max Temperature 80 °F 83 °F 99 °F (1984)
Min Temperature 68 °F 57 °F 38 °F (1986)
Cooling Degree Days 9    
Growing Degree Days 24 (Base 50)    
Moisture  
Dew Point 70 °F    
Average Humidity 93    
Maximum Humidity 100    
Minimum Humidity 78    
Precipitation  
Precipitation 0.69 in - - ()
Sea Level Pressure  
Sea Level Pressure 29.98 in    
Wind  
Wind Speed 7 mph (ESE)    
Max Wind Speed 16 mph    
Max Gust Speed 26 mph    
Visibility 9 miles    
Events Rain    
Averages and records for this station are not official NWS values.
T = Trace of Precipitation, MM = Missing Value Source: NWS Daily Summary

Daily Weather History Graph

Daily Weather History Graph

Search for Another Location

Airport or City:

Trip Planner

Search our weather history database for the weather conditions in past years. The results will help you decide how hot, cold, wet, or windy it might be!

Date:

Astronomy

Aug. 28, 2014 Rise Set
Actual Time 6:36 AM CDT 7:52 PM CDT
Civil Twilight 6:07 AM CDT 8:20 PM CDT
Nautical Twilight 5:33 AM CDT 8:54 PM CDT
Astronomical Twilight 4:57 AM CDT 9:30 PM CDT
Moon 9:30 AM CDT (8/28) 9:14 PM CDT (8/28)
Length of Visible Light 14h 13m
Length of Day
13h 16m
Waxing Crescent, 9% of the Moon is Illuminated
Aug 28
Waxing Crescent
Sep 2
First Quarter
Sep 8
Full
Sep 15
Last Quarter
Sep 24
New

Hourly Weather History & Observations

Time (CDT) Temp. Heat Index Dew Point Humidity Pressure Visibility Wind Dir Wind Speed Gust Speed Precip Events Conditions
12:15 AM 69.8 °F - 68.0 °F 94% 30.08 in 10.0 mi East 5.8 mph - N/A   Overcast
12:35 AM 69.8 °F - 68.0 °F 94% 30.08 in 10.0 mi East 4.6 mph - N/A   Overcast
12:55 AM 69.8 °F - 68.0 °F 94% 30.09 in 10.0 mi East 4.6 mph - N/A   Overcast
1:15 AM 69.8 °F - 69.8 °F 100% 30.08 in 10.0 mi East 4.6 mph - N/A   Overcast
1:35 AM 69.8 °F - 69.8 °F 100% 30.07 in 10.0 mi East 5.8 mph - N/A   Overcast
1:55 AM 69.8 °F - 69.8 °F 100% 30.06 in - East 5.8 mph - N/A   Unknown
2:15 AM 69.8 °F - 68.0 °F 94% 30.06 in 10.0 mi East 5.8 mph - N/A   Overcast
2:35 AM 69.8 °F - 68.0 °F 94% 30.05 in 10.0 mi ENE 5.8 mph - N/A   Overcast
2:55 AM 69.8 °F - 68.0 °F 94% 30.05 in 10.0 mi East 6.9 mph - N/A   Overcast
3:15 AM 69.8 °F - 68.0 °F 94% 30.04 in 10.0 mi East 6.9 mph - N/A   Overcast
3:35 AM 69.8 °F - 68.0 °F 94% 30.04 in 10.0 mi East 9.2 mph - N/A   Overcast
3:55 AM 69.8 °F - 68.0 °F 94% 30.04 in 10.0 mi East 8.1 mph - N/A   Overcast
4:15 AM 69.8 °F - 68.0 °F 94% 30.04 in 10.0 mi East 6.9 mph - N/A   Overcast
4:35 AM 69.8 °F - 68.0 °F 94% 30.04 in 10.0 mi East 9.2 mph - N/A   Overcast
4:55 AM 69.8 °F - 68.0 °F 94% 30.04 in 10.0 mi East 6.9 mph - N/A   Overcast
5:15 AM 69.8 °F - 68.0 °F 94% 30.04 in 10.0 mi East 6.9 mph - N/A   Overcast
5:35 AM 69.8 °F - 68.0 °F 94% 30.03 in 10.0 mi East 5.8 mph - N/A Rain Light Rain
5:55 AM 69.8 °F - 68.0 °F 94% 30.04 in 10.0 mi East 3.5 mph - N/A   Overcast
6:15 AM 69.8 °F - 68.0 °F 94% 30.04 in 9.0 mi Calm Calm - N/A Rain Light Rain
6:35 AM 69.8 °F - 68.0 °F 94% 30.06 in 7.0 mi West 6.9 mph 17.3 mph N/A Rain Light Rain
6:55 AM 69.8 °F - 68.0 °F 94% 30.05 in 2.0 mi Calm Calm - 0.22 in Rain Rain
7:15 AM 69.8 °F - 68.0 °F 94% 30.04 in 3.0 mi East 3.5 mph - N/A Rain Light Rain
7:35 AM 69.8 °F - 68.0 °F 94% 30.03 in 3.0 mi NE 8.1 mph - N/A Rain Rain
7:55 AM 68.0 °F - 68.0 °F 100% 30.02 in 6.0 mi East 9.2 mph - 0.21 in Rain Light Rain
8:15 AM 69.8 °F - 68.0 °F 94% 30.01 in 5.0 mi East 9.2 mph - N/A   Overcast
8:35 AM 69.8 °F - 68.0 °F 94% 30.01 in 8.0 mi East 11.5 mph - N/A   Mostly Cloudy
8:55 AM 69.8 °F - 68.0 °F 94% 30.00 in 10.0 mi East 10.4 mph - N/A   Mostly Cloudy
9:15 AM 69.8 °F - 68.0 °F 94% 30.04 in 10.0 mi Variable 5.8 mph 13.8 mph N/A   Mostly Cloudy
9:50 AM 69.8 °F - 68.0 °F 94% 30.02 in 2.5 mi Variable 4.6 mph 17.3 mph N/A   Overcast
10:15 AM 69.8 °F - 68.0 °F 94% 30.04 in 1.5 mi ESE 8.1 mph - N/A Rain Heavy Rain
10:35 AM 69.8 °F - 68.0 °F 94% 30.05 in 3.0 mi Calm Calm - N/A Rain Light Rain
10:55 AM 69.8 °F - 69.8 °F 100% 30.03 in 4.0 mi NE 5.8 mph - 0.24 in Rain Light Rain
11:15 AM 69.8 °F - 68.0 °F 94% 30.03 in 5.0 mi East 5.8 mph - N/A Rain Light Rain
11:35 AM 69.8 °F - 69.8 °F 100% 30.02 in 9.0 mi East 6.9 mph - N/A   Overcast
11:55 AM 69.8 °F - 69.8 °F 100% 30.02 in 9.0 mi East 8.1 mph - 0.02 in   Overcast
12:15 PM 69.8 °F - 69.8 °F 100% 30.00 in 10.0 mi ESE 9.2 mph - N/A   Mostly Cloudy
12:35 PM 71.6 °F - 69.8 °F 94% 29.99 in 10.0 mi ESE 12.7 mph - N/A   Scattered Clouds
12:55 PM 71.6 °F - 69.8 °F 94% 29.98 in 10.0 mi ESE 12.7 mph - N/A   Mostly Cloudy
1:15 PM 73.4 °F - 71.6 °F 94% 29.96 in 10.0 mi SE 8.1 mph - N/A   Scattered Clouds
1:35 PM 73.4 °F - 71.6 °F 94% 29.95 in 10.0 mi SE 11.5 mph - N/A   Clear
1:55 PM 75.2 °F - 71.6 °F 89% 29.95 in 10.0 mi SSE 16.1 mph 24.2 mph N/A   Partly Cloudy
2:15 PM 75.2 °F - 71.6 °F 89% 29.95 in 10.0 mi SSE 16.1 mph 26.5 mph N/A   Mostly Cloudy
2:35 PM 75.2 °F - 71.6 °F 89% 29.95 in 10.0 mi SSE 15.0 mph - N/A   Overcast
2:55 PM 77.0 °F - 73.4 °F 89% 29.94 in 10.0 mi SSE 10.4 mph 17.3 mph N/A   Mostly Cloudy
3:15 PM 78.8 °F - 71.6 °F 78% 29.93 in 10.0 mi Variable 5.8 mph - N/A   Mostly Cloudy
3:35 PM 78.8 °F - 71.6 °F 78% 29.93 in 10.0 mi Variable 4.6 mph - N/A   Clear
3:55 PM 80.6 °F 85.4 °F 73.4 °F 79% 29.93 in 10.0 mi SE 5.8 mph - N/A   Clear
4:15 PM 80.6 °F 85.4 °F 73.4 °F 79% 29.93 in 9.0 mi SE 8.1 mph - N/A   Clear
4:35 PM 80.6 °F 85.4 °F 73.4 °F 79% 29.93 in 10.0 mi SE 11.5 mph - N/A   Partly Cloudy
4:55 PM 80.6 °F 85.4 °F 73.4 °F 79% 29.93 in 10.0 mi East 9.2 mph - N/A   Scattered Clouds
5:15 PM 80.6 °F 85.4 °F 73.4 °F 79% 29.93 in 10.0 mi SE 10.4 mph - N/A   Scattered Clouds
5:35 PM 80.6 °F 85.4 °F 73.4 °F 79% 29.93 in 10.0 mi SE 10.4 mph - N/A   Partly Cloudy
5:55 PM 77.0 °F - 73.4 °F 89% 29.92 in 10.0 mi SE 10.4 mph - N/A   Clear
6:15 PM 77.0 °F - 73.4 °F 89% 29.92 in 10.0 mi ESE 8.1 mph - N/A   Clear
6:35 PM 77.0 °F - 73.4 °F 89% 29.92 in 10.0 mi ESE 8.1 mph - N/A   Clear
6:55 PM 77.0 °F - 73.4 °F 89% 29.91 in 10.0 mi ESE 5.8 mph - N/A   Clear
7:15 PM 77.0 °F - 73.4 °F 89% 29.90 in 10.0 mi ESE 5.8 mph - N/A   Clear
7:35 PM 75.2 °F - 73.4 °F 94% 29.90 in 10.0 mi SE 8.1 mph - N/A   Scattered Clouds
7:55 PM 75.2 °F - 73.4 °F 94% 29.89 in 9.0 mi ESE 5.8 mph - N/A   Scattered Clouds
8:15 PM 73.4 °F - 73.4 °F 100% 29.89 in 9.0 mi ESE 8.1 mph - N/A   Clear
8:35 PM 73.4 °F - 73.4 °F 100% 29.91 in 10.0 mi ESE 6.9 mph - N/A   Scattered Clouds
8:55 PM 73.4 °F - 71.6 °F 94% 29.91 in 8.0 mi ESE 6.9 mph - N/A   Mostly Cloudy
9:15 PM 73.4 °F - 71.6 °F 94% 29.92 in 8.0 mi ESE 6.9 mph - N/A   Overcast
9:35 PM 73.4 °F - 71.6 °F 94% 29.92 in 9.0 mi ESE 8.1 mph - N/A   Overcast
9:55 PM 71.6 °F - 71.6 °F 100% 29.92 in 9.0 mi ESE 8.1 mph - N/A   Overcast
10:15 PM 71.6 °F - 71.6 °F 100% 29.91 in 10.0 mi ESE 9.2 mph - N/A   Overcast
10:35 PM 71.6 °F - 69.8 °F 94% 29.91 in 10.0 mi SE 9.2 mph - N/A   Mostly Cloudy
10:55 PM 71.6 °F - 69.8 °F 94% 29.92 in - SE 9.2 mph - N/A   Unknown
11:15 PM 71.6 °F - 69.8 °F 94% 29.92 in 10.0 mi SE 9.2 mph - N/A   Overcast
11:35 PM 71.6 °F - 69.8 °F 94% 29.92 in 10.0 mi SE 12.7 mph - N/A   Overcast
11:55 PM 71.6 °F - 69.8 °F 94% 29.92 in 10.0 mi SE 11.5 mph - N/A   Overcast